Wind_Speed
18 19 19 19 20 21 21 22 23 24 25 26 27 26 24 25 25 25 22 18 16 15 14 17 22 23 27 36 44 35 30 55 43 40 37 47 32 42 35 28 30 36 35 28 29
17 18 18 18 19 20 21 23 24 27 27 28 27 24 23 23 21 22 17 8 10 12 15 19 21 23 28 35 43 33 40 44 12 35 33 23 33 45 36 32 32 34 28 29 31
16 17 16 16 18 19 21 23 26 29 30 29 26 23 21 21 18 13 8 8 11 11 14 15 15 24 30 27 41 35 43 33 39 36 27 24 36 41 31 38 40 37 33 32 31
16 16 15 16 19 21 22 23 27 31 29 28 25 22 20 17 11 11 10 12 11 11 11 13 13 17 19 27 38 33 36 43 22 29 25 28 28 35 34 36 36 33 31 33 35
16 15 14 16 20 22 24 26 30 33 30 27 24 19 18 15 17 11 12 12 13 13 14 15 13 18 25 16 32 34 35 31 33 16 25 22 35 29 42 32 35 32 30 34 38
14 14 14 17 20 23 27 28 30 32 29 27 21 17 13 13 12 11 14 14 13 14 14 12 13 16 20 22 28 28 33 28 19 24 25 25 35 34 34 38 35 34 31 33 32
14 14 15 18 22 25 29 30 31 30 28 22 18 15 10 9 11 13 12 12 12 12 11 11 11 16 14 22 29 31 24 29 21 23 24 22 28 42 30 46 39 32 31 31 31
13 15 17 20 24 26 30 30 30 29 26 21 15 11 7 9 11 12 11 12 7 5 6 8 10 13 20 15 21 24 19 19 23 16 25 20 19 36 36 41 38 33 33 33 34
13 16 18 21 25 27 29 31 30 28 22 15 8 8 5 12 13 11 9 8 7 5 4 4 5 12 14 19 10 19 18 19 22 16 21 33 6 30 46 42 32 36 33 34 30
13 16 18 22 25 28 29 30 30 25 17 6 7 6 11 14 13 10 7 6 6 8 5 5 6 6 4 8 3 22 14 21 21 20 18 22 31 11 38 41 32 36 35 34 30
13 15 18 22 27 27 30 29 29 20 5 7 5 6 11 14 13 9 5 4 5 6 6 7 8 6 3 3 19 15 19 22 17 19 20 16 28 33 20 39 35 35 37 34 31
12 15 18 22 27 27 30 30 26 12 8 8 13 11 17 15 10 8 4 4 4 5 7 8 7 4 5 5 16 14 27 18 17 16 20 17 20 20 21 25 37 34 31 33 28
11 14 18 23 26 27 30 30 22 3 6 7 13 14 18 13 6 6 4 6 6 8 10 11 8 5 4 4 9 6 30 21 17 14 13 20 19 21 22 14 10 23 29 23 25
11 13 18 24 26 29 29 27 13 8 3 6 14 14 19 16 4 6 4 6 5 6 7 7 3 5 7 4 1 4 21 36 17 8 5 18 5 19 30 15 13 11 20 17 20
11 13 18 23 25 28 28 20 5 6 4 6 12 13 18 13 6 5 4 5 4 7 9 3 3 10 8 7 6 3 16 25 20 11 11 16 7 12 28 24 20 24 21 18 25
11 12 17 22 24 27 26 12 2 2 1 3 9 16 17 14 7 6 5 3 6 6 8 6 9 8 10 10 5 6 20 22 23 10 1 12 11 7 18 30 33 26 37 33 33
12 12 17 21 24 25 21 10 1 4 1 2 8 13 13 13 9 8 7 7 7 7 5 10 8 10 13 12 6 5 27 7 6 5 3 15 12 11 13 19 29 30 35 33 36
12 12 16 19 24 23 17 6 2 5 3 2 4 7 11 13 9 11 9 8 12 6 7 7 8 9 9 3 1 3 6 4 3 4 2 17 7 5 10 3 15 23 33 37 37
12 11 14 17 21 20 14 2 3 7 3 2 0 5 7 10 6 5 13 11 15 17 6 5 9 9 9 5 1 3 6 7 6 10 7 8 6 7 11 6 13 15 35 29 27
12 10 12 16 17 16 10 3 7 8 4 2 3 5 6 7 6 3 7 9 9 13 10 6 7 7 8 8 4 3 11 3 4 4 3 4 2 3 11 5 6 12 16 20 22
12 8 11 15 15 12 7 3 7 9 7 3 2 1 4 5 4 4 6 7 8 6 6 4 0 4 7 2 5 6 1 3 4 3 4 4 2 2 13 11 11 10 13 17 22
12 7 9 12 9 10 7 5 8 12 9 4 3 5 5 4 4 2 3 4 5 5 4 5 6 5 3 3 6 8 7 2 2 2 5 3 3 6 8 10 12 13 14 16 21
11 7 6 7 7 7 5 5 10 13 11 4 4 4 5 3 2 5 7 5 4 6 5 3 5 5 2 1 6 10 13 7 5 5 4 2 4 4 5 5 5 8 14 19 21
12 6 5 5 9 6 5 5 13 15 10 6 5 6 6 4 4 5 8 4 3 3 4 6 3 2 3 1 3 6 13 13 5 2 3 2 13 7 6 9 9 6 6 12 18
14 8 4 5 7 5 4 5 14 16 11 9 5 6 7 6 5 6 4 5 4 4 5 4 4 5 3 3 1 3 12 18 9 8 6 5 12 6 3 5 5 4 4 5 10
15 9 4 6 4 3 3 5 14 19 15 9 6 6 7 5 5 2 4 3 3 7 4 5 2 4 5 4 4 1 10 19 13 9 5 10 9 6 2 4 7 6 5 5 6
15 9 5 3 1 2 3 4 14 20 14 9 7 6 7 6 8 7 4 2 1 3 2 2 3 4 3 2 2 4 1 20 18 11 10 12 10 11 13 16 16 16 17 13 9
Wind_Direction
332 330 328 329 329 332 326 322 320 321 320 320 319 318 315 310 306 306 301 292 286 270 266 264 256 238 223 216 209 209 225 231 234 219 214 210 192 207 203 226 217 212 218 216 200
334 331 329 330 333 335 332 326 326 325 326 323 320 320 316 308 312 306 302 274 264 263 270 271 239 231 222 214 217 205 216 228 237 217 219 196 203 196 202 213 207 205 202 199 207
335 332 329 330 337 340 336 332 332 329 328 326 322 319 315 309 313 308 291 266 256 260 268 285 278 217 225 214 217 223 219 216 231 205 216 206 189 191 205 208 206 207 200 198 197
335 335 332 333 336 337 337 336 337 332 330 327 323 319 314 314 303 310 284 270 277 283 280 270 270 235 239 225 214 233 222 222 232 226 217 206 184 192 193 190 201 210 214 199 201
336 338 334 336 337 340 338 336 336 333 332 329 324 318 308 315 314 307 286 286 281 283 277 271 257 243 245 251 208 221 227 230 236 203 219 193 194 200 196 188 194 195 204 197 204
338 340 337 338 337 340 338 333 334 332 333 329 323 316 315 310 312 311 301 293 287 281 272 267 265 242 255 250 209 222 228 220 226 237 197 190 179 169 186 195 189 186 190 197 201
336 337 337 334 333 336 336 333 332 333 335 329 322 312 319 307 310 317 310 301 290 278 274 257 252 242 251 249 199 215 224 221 214 239 237 192 177 189 178 190 193 183 182 191 198
331 332 334 331 331 333 335 333 332 334 336 329 328 324 326 321 311 311 316 307 342 290 283 269 252 249 246 242 184 207 212 205 217 219 229 198 195 179 183 183 178 177 181 185 196
326 331 335 334 334 335 336 333 334 337 338 335 358 356 360 332 321 317 311 311 320 323 315 317 270 259 263 254 182 189 208 197 209 210 215 227 220 190 201 184 175 178 179 184 187
321 330 335 336 336 336 337 335 336 340 342 8 26 7 340 330 327 314 310 293 296 307 303 307 339 303 274 287 210 191 191 196 198 197 202 225 223 230 179 185 184 179 181 181 181
316 326 334 336 338 337 337 337 336 343 36 83 42 26 353 335 321 306 297 289 289 285 299 317 333 325 225 302 234 189 196 195 179 209 208 217 221 248 196 189 180 182 183 175 172
306 326 330 335 340 336 339 338 337 340 99 71 26 15 5 339 321 291 277 324 315 294 297 312 8 340 176 270 225 173 189 175 167 179 199 196 206 219 232 222 207 199 177 176 173
304 322 325 335 338 336 341 339 338 113 113 65 36 24 6 351 322 275 295 288 289 292 286 293 295 298 178 171 217 162 189 176 150 181 170 167 185 192 211 203 184 217 187 177 186
294 314 322 334 334 340 341 342 344 163 95 33 17 9 359 358 355 323 303 300 290 281 299 299 311 204 168 136 188 161 187 196 176 166 152 182 152 214 214 208 239 193 190 179 185
281 308 320 331 334 340 342 345 25 138 52 13 3 341 358 357 348 353 329 319 309 254 280 294 166 165 163 181 153 153 160 187 187 203 150 170 175 224 226 235 236 218 205 190 203
272 304 315 328 335 339 343 357 50 123 290 13 358 350 356 7 19 4 4 342 314 332 269 247 167 167 158 150 191 170 138 159 184 190 301 216 195 215 211 227 234 219 204 207 204
261 297 312 329 337 340 347 359 130 76 116 355 344 351 4 10 28 27 29 19 355 354 52 144 136 117 147 153 172 203 140 126 156 173 211 189 189 210 224 243 238 230 209 215 213
254 291 309 330 335 342 352 356 122 127 143 48 343 356 8 15 37 49 52 54 45 52 353 64 86 112 130 129 290 219 134 119 127 137 135 166 216 227 208 177 216 223 211 206 213
247 280 312 325 334 345 355 328 107 150 118 110 100 29 11 15 34 56 57 45 34 39 46 40 72 95 129 109 136 264 81 92 102 91 102 173 251 237 214 234 216 206 211 211 217
237 270 306 325 335 350 353 44 143 151 138 112 83 36 15 13 29 46 71 45 28 42 50 72 90 110 132 124 127 140 105 116 78 125 91 214 237 168 155 159 148 188 209 218 221
224 264 302 328 337 349 354 70 144 163 155 155 105 98 63 30 45 41 85 75 46 59 54 75 112 130 135 112 131 161 184 84 91 83 148 149 211 211 182 193 197 211 221 226 216
214 251 297 325 334 346 16 64 131 159 157 151 99 119 86 61 41 76 121 117 99 54 12 75 106 87 64 93 141 145 189 69 57 59 54 74 86 91 160 200 232 227 222 233 226
205 249 281 319 326 340 34 87 142 158 150 161 140 113 78 54 49 133 131 121 103 51 35 71 110 103 53 185 183 180 197 205 73 68 54 78 144 128 141 189 235 232 221 219 222
202 223 270 288 323 345 33 110 150 163 157 156 149 138 115 84 132 155 148 100 72 62 44 101 75 62 157 14 226 202 191 188 167 118 110 139 140 142 145 154 129 105 199 214 214
204 214 254 294 317 345 28 107 156 166 163 154 152 145 150 123 115 160 203 133 138 89 72 37 84 75 75 48 118 230 206 190 169 145 96 141 135 142 159 167 172 152 131 166 207
200 204 236 294 304 350 40 113 160 172 164 160 150 114 122 110 111 138 184 150 126 113 78 47 52 38 67 69 37 354 195 192 173 148 171 145 150 171 159 284 290 284 287 250 216
190 197 240 272 289 359 39 103 157 166 160 155 154 134 120 105 76 77 160 174 224 138 105 66 29 15 26 45 75 66 111 198 203 211 202 219 235 241 268 277 279 277 273 275 265
Height
3111 3108 3105 3103 3101 3097 3093 3089 3085 3081 3076 3072 3069 3066 3063 3060 3056 3053 3051 3050 3048 3048 3048 3047 3048 3050 3052 3055 3059 3063 3064 3058 3064 3069 3073 3087 3093 3099 3107 3112 3116 3118 3119 3124 3128
3107 3105 3102 3100 3097 3093 3089 3085 3081 3076 3072 3068 3063 3060 3057 3054 3051 3048 3046 3044 3045 3044 3044 3042 3044 3046 3046 3048 3053 3051 3055 3055 3061 3069 3076 3081 3087 3093 3101 3107 3111 3114 3116 3120 3122
3104 3101 3098 3097 3093 3089 3085 3081 3077 3073 3067 3063 3058 3055 3052 3049 3048 3044 3043 3042 3041 3040 3039 3038 3038 3040 3041 3043 3046 3046 3049 3055 3057 3063 3067 3071 3079 3086 3095 3101 3106 3109 3112 3117 3120
3101 3098 3096 3094 3091 3086 3082 3078 3074 3069 3063 3058 3054 3051 3047 3045 3046 3042 3040 3039 3037 3037 3036 3036 3035 3036 3036 3038 3042 3046 3046 3052 3053 3055 3063 3065 3073 3079 3089 3095 3101 3107 3110 3114 3118
3099 3095 3093 3090 3088 3083 3078 3074 3069 3064 3059 3053 3049 3046 3043 3042 3041 3039 3037 3035 3034 3034 3033 3033 3032 3033 3032 3032 3036 3040 3044 3047 3050 3046 3055 3062 3067 3076 3084 3086 3094 3101 3108 3112 3117
3096 3093 3090 3087 3084 3079 3075 3070 3065 3060 3054 3049 3045 3042 3040 3039 3037 3036 3034 3032 3032 3031 3030 3030 3030 3030 3030 3029 3033 3035 3039 3046 3050 3049 3053 3059 3064 3072 3079 3085 3089 3095 3102 3108 3113
3094 3090 3087 3084 3080 3076 3071 3066 3061 3055 3050 3045 3042 3039 3038 3038 3034 3033 3031 3029 3029 3027 3027 3027 3027 3027 3026 3028 3028 3032 3039 3044 3048 3047 3047 3055 3061 3067 3074 3081 3086 3091 3097 3105 3111
3090 3087 3084 3081 3077 3072 3067 3062 3057 3051 3045 3040 3038 3036 3035 3034 3033 3031 3029 3027 3026 3025 3024 3024 3024 3024 3023 3024 3026 3032 3036 3038 3042 3044 3048 3057 3052 3062 3068 3076 3081 3087 3094 3100 3107
3088 3085 3081 3077 3073 3068 3062 3058 3053 3047 3042 3038 3036 3034 3034 3033 3032 3030 3027 3026 3025 3024 3023 3023 3022 3022 3022 3021 3024 3030 3033 3035 3037 3041 3044 3051 3050 3061 3069 3073 3078 3084 3091 3096 3103
3085 3082 3078 3074 3069 3064 3059 3054 3048 3044 3039 3037 3036 3037 3034 3032 3029 3027 3026 3025 3024 3023 3023 3022 3021 3021 3022 3022 3022 3028 3031 3034 3036 3041 3046 3051 3056 3056 3062 3071 3076 3083 3088 3092 3098
3082 3080 3076 3071 3065 3060 3055 3050 3047 3042 3037 3037 3036 3034 3032 3030 3026 3026 3024 3024 3023 3023 3022 3021 3021 3019 3020 3020 3022 3026 3031 3032 3036 3037 3043 3049 3054 3055 3056 3068 3074 3080 3086 3092 3096
3079 3076 3073 3068 3061 3056 3051 3046 3041 3039 3037 3036 3034 3033 3030 3027 3025 3024 3024 3024 3023 3022 3021 3021 3019 3018 3018 3019 3022 3023 3029 3033 3038 3041 3048 3051 3057 3061 3064 3068 3073 3079 3081 3090 3096
3075 3073 3069 3064 3058 3053 3047 3043 3036 3034 3035 3035 3034 3032 3030 3026 3023 3023 3023 3022 3022 3021 3020 3019 3020 3017 3019 3019 3021 3022 3026 3032 3039 3042 3046 3050 3056 3060 3062 3069 3072 3072 3076 3084 3093
3071 3069 3066 3061 3057 3049 3045 3039 3033 3032 3034 3036 3033 3032 3030 3025 3023 3022 3022 3023 3021 3020 3019 3018 3017 3016 3016 3018 3022 3023 3027 3031 3038 3043 3046 3049 3056 3058 3061 3066 3069 3074 3076 3084 3087
3067 3065 3062 3057 3052 3046 3043 3035 3032 3033 3038 3037 3034 3033 3028 3026 3024 3022 3022 3020 3019 3019 3020 3019 3018 3016 3018 3022 3023 3024 3027 3033 3039 3043 3047 3051 3053 3055 3063 3068 3071 3077 3081 3084 3091
3063 3060 3058 3055 3048 3044 3038 3033 3032 3034 3036 3035 3034 3031 3029 3025 3023 3022 3021 3020 3018 3017 3016 3016 3017 3018 3022 3023 3024 3023 3028 3034 3039 3043 3046 3046 3050 3051 3056 3060 3066 3075 3078 3084 3090
3058 3056 3055 3051 3045 3040 3035 3032 3033 3031 3037 3036 3033 3031 3029 3026 3024 3022 3021 3020 3020 3018 3017 3017 3017 3019 3022 3024 3025 3024 3028 3035 3043 3047 3047 3047 3053 3049 3050 3052 3054 3061 3069 3073 3083
3053 3051 3050 3046 3041 3037 3033 3032 3030 3033 3033 3033 3032 3032 3030 3027 3025 3024 3023 3021 3021 3020 3017 3016 3022 3025 3024 3026 3026 3027 3029 3031 3032 3042 3045 3049 3049 3046 3048 3048 3052 3059 3068 3077 3082
3048 3047 3046 3043 3039 3034 3032 3029 3029 3031 3032 3032 3032 3031 3030 3028 3027 3026 3025 3024 3023 3022 3023 3022 3023 3025 3025 3027 3030 3029 3030 3032 3033 3037 3042 3048 3048 3048 3049 3050 3053 3057 3064 3070 3075
3044 3043 3042 3039 3035 3032 3030 3027 3027 3029 3030 3031 3031 3032 3030 3029 3028 3027 3027 3029 3027 3026 3026 3026 3027 3027 3029 3031 3031 3031 3033 3036 3035 3042 3048 3048 3049 3048 3050 3052 3054 3056 3061 3065 3069
3039 3039 3038 3036 3033 3031 3028 3025 3025 3028 3030 3032 3031 3032 3031 3030 3029 3029 3031 3032 3030 3030 3029 3029 3030 3033 3031 3031 3032 3033 3034 3036 3037 3040 3043 3051 3049 3049 3051 3053 3055 3056 3059 3061 3064
3035 3036 3035 3033 3032 3028 3025 3024 3025 3027 3028 3031 3031 3031 3031 3031 3030 3030 3031 3031 3031 3032 3031 3030 3032 3032 3031 3032 3032 3033 3036 3038 3038 3040 3039 3041 3047 3046 3048 3051 3053 3055 3057 3058 3062
3030 3032 3032 3030 3028 3026 3024 3024 3024 3026 3028 3030 3031 3031 3031 3031 3032 3030 3030 3031 3031 3031 3032 3032 3032 3034 3035 3035 3034 3035 3036 3037 3038 3039 3042 3044 3047 3047 3049 3051 3051 3053 3055 3058 3060
3027 3028 3028 3027 3025 3024 3022 3023 3024 3026 3028 3030 3031 3031 3031 3031 3030 3031 3031 3032 3032 3032 3030 3032 3032 3033 3033 3033 3034 3034 3035 3038 3041 3042 3043 3045 3045 3047 3049 3049 3051 3054 3054 3056 3059
3022 3024 3025 3024 3022 3021 3021 3021 3022 3025 3027 3030 3031 3030 3031 3031 3032 3031 3031 3032 3033 3032 3032 3032 3032 3033 3035 3035 3034 3034 3037 3039 3041 3043 3044 3048 3047 3050 3051 3051 3053 3054 3055 3057 3058
3019 3021 3022 3021 3020 3020 3020 3020 3021 3024 3027 3029 3031 3030 3030 3032 3032 3032 3032 3033 3034 3035 3035 3034 3034 3033 3033 3035 3035 3035 3036 3039 3042 3044 3045 3048 3049 3051 3051 3052 3054 3055 3056 3057 3059
3015 3018 3020 3020 3019 3019 3019 3018 3020 3023 3027 3030 3032 3032 3032 3034 3033 3032 3032 3033 3034 3035 3036 3036 3036 3035 3035 3034 3035 3037 3037 3038 3042 3045 3048 3048 3051 3051 3052 3052 3053 3054 3054 3055 3057